Flag for Germany Weather past 2 weeks in Dorsten, North Rhine-Westphalia, Germany

62 °F


Feels Like: 62 °F
Forecast: 56 / 65 °F
Wind: 3 mph from South

Location: Essen

Current Time: Oct 6, 2015 at 8:57:08 PM

Latest Report: Oct 6, 2015 at 8:00 PM

Visibility: 17 mi

Pressure: 29.64 "Hg

Humidity: 95%

Dew point: 61 °F

Location of DorstenLocation

Historic Weather in Dorsten — Graph


Dorsten temperature yesterday

Maximum temperature yesterday: 63 °F (at 2:00 PM)
Minimum temperature yesterday: 48 °F (at 7:00 AM)
Average temperature yesterday: 57 °F

Past Weeks' High & Low Weather Summary

High66 °F (Oct 6, 2:00 PM)100% (Sep 23, 5:00 AM)30.66 "Hg (Sep 23, 5:00 AM)
Low38 °F (Oct 2, 8:00 AM)44% (Oct 1, 4:00 PM)29.50 "Hg (Sep 22, 4:00 PM)
Average55 °F80%30.15 "Hg
* Reported Sep 21 8:00 PM — Oct 6 8:00 PM, Dorsten, Weather by CustomWeather, © 2015

Note: Actual official high and low records may vary slightly from our data, if they occured in-between our weather recording intervals... More about our weather records


Dorsten weather history for previous 24 hours

Time TempWeatherWind HumidityBarometerVisibility
8:00 PM
Tue, Oct 6
62 °FOvercast.3 mph95%29.64 "Hg17 mi
7:00 PM63 °FOvercast.3 mph95%29.62 "Hg22 mi
6:00 PM63 °FLight freezing rain. Overcast.5 mph93%29.60 "Hg16 mi
5:00 PM65 °FOvercast.3 mph83%29.59 "Hg34 mi
4:00 PM66 °FOvercast.5 mph80%29.60 "Hg34 mi
3:00 PM66 °FOvercast.5 mph80%29.61 "Hg31 mi
2:00 PM66 °FOvercast.3 mph81%29.62 "Hg28 mi
1:00 PM64 °FOvercast.3 mph89%29.64 "Hg22 mi
12:00 PM60 °FLow clouds.3 mph91%29.64 "Hg13 mi
11:00 AM58 °FLow clouds.5 mph96%29.63 "Hg8 mi
10:00 AM58 °FLow clouds.6 mph99%29.62 "Hg6 mi
9:00 AM58 °FDrizzle. Low clouds.7 mph98%29.61 "Hg4 mi
8:00 AM58 °FDrizzle. Low clouds.6 mph97%29.59 "Hg4 mi
7:00 AM58 °FLight freezing rain. Low clouds.5 mph99%29.59 "Hg2 mi
5:00 AM58 °FLow clouds.5 mph96%29.59 "Hg17 mi
4:00 AM56 °FLight freezing rain. Passing clouds.8 mph100%29.61 "Hg1 mi
3:00 AM56 °FRain. Low clouds.3 mph99%29.65 "Hg1 mi
2:00 AM56 °FLight freezing rain. Overcast.5 mph96%29.68 "Hg2 mi
1:00 AM57 °FLight rain. Overcast.3 mph92%29.71 "Hg6 mi
11:00 PM
Mon, Oct 5
59 °FLight rain. Overcast.5 mph77%29.75 "Hg14 mi
10:00 PM58 °FOvercast.5 mph80%29.77 "Hg28 mi
9:00 PM57 °FOvercast.3 mph82%29.79 "Hg25 mi
8:00 PM59 °FOvercast.3 mph77%29.81 "Hg31 mi
Weather by CustomWeather, © 2015

See weather overviewHow to use our weather pages